Weather in Pesochnya

Russia / Ryazan Oblast     54°06′33″N   40°49′22″E
В апреле 2022 года жителям России запретили посещать сайт meteo.paraplan.net по решению Генеральной прокуратуры. Аудитория сайта уменьшилась в 10 раз. Владельцы сайта не видят смысла в поддержке погодного сервера в таких условиях. Сайт будет закрыт в октябре.
temp.,
°C
wind,
m/s
gust,
m/s
humid.,
%
clouds,
%
prec.,
mm/h
press.,
hPa
HPBL,
m
3 october, mon
mon300:00+16sse61581100 0.8 1001485
03:00+16se71486100 1.1 999725
06:00+16se81881100 0.1 998895
09:00+15se91877100 0.9 997920
12:00+13s71486100 5.1 999897
15:00+12s9177064 5.3 10041788
18:00+10s9147583 0.1 1007984
21:00+11sse714797 0.1 1009813
4 october, tue
tue400:00+10sse815805 0.0 1010641
03:00+9sse716800 0.0 1011537
06:00+9sse716785 0.0 1012503
09:00+12sse714695 0.0 1013752
12:00+15s8145596 0.0 10131778
15:00+13s61373100 0.6 10131229
18:00+11s71587100 1.3 1013685
21:00+11s51087100 4.7 1013369
5 october, wed
wed500:00+11ssw51182100 0.1 1014621
03:00+10ssw51180100 0.1 1014637
06:00+9ssw61183100 0.1 1014684
09:00+9s61281100 0.7 10141208
12:00+10sw81275100 0.4 10151273
15:00+8wsw5886100 0.8 10161066
18:00+8wsw598296 0.2 1017550
21:00+7wsw598798 0.3 1017555
6 october, thu
thu600:00+6wsw378483 0.1 1018212
03:00+6sw3789100 0.1 1018345
06:00+7w379096 0.3 1018460
09:00+8w458374 0.6 1018549
12:00+10w5771100 0.2 10181205
15:00+8ssw3890100 0.6 1018433
18:00+10sw4109494 0.8 1017341
21:00+11wsw51191100 0.9 1016511
7 october, fri
fri700:00+11wsw6129042 0.1 1016496
03:00+9wsw5129536 0.1 1016354
06:00+10w51195100 0.0 1017510
09:00+12wnw510771 0.0 1018806
12:00+14wnw79642 0.0 10191136
15:00+13nw7106567 0.0 10201267
18:00+11w612740 0.0 1021656
21:00+8w412840 0.0 1023405